Date String (YYYY-MM-DD hh:mm:ss) UTC,Instrument flags,Ambient pressure (hPa),Sample flow (lpm),Bypass flow (lpm),Sample temperature (°C),Ambient temperature (°C),ASC tube jacket temperature (°C),LED temperature (°C),Box temperature (°C),Sample RH (%),Span deviation,Mass concentration (μg/m³),Mass concentration (μg/m³),Mass concentration (μg/m³)
DateTimeUTC,F1_M11,P_M11,Q1_M11,Q2_M11,T1_M11,T2_M11,T3_M11,T4_M11,T5_M11,U1_M11,ZSPAN_M11,X0_M11,X2_M11,X1_M11
2022-03-19 18:00:00,,0826.5,5.00,0.00,23.5,22.9,00.0,32.5,25.3,08.7,0000.0,0008.25,0003.56,0002.19
2022-03-19 18:01:00,,0826.5,5.00,0.00,23.6,22.9,00.0,32.5,25.3,09.7,0000.0,0008.42,0003.61,0002.20
2022-03-19 18:02:00,,0826.6,5.00,0.00,23.6,23.0,00.0,32.5,25.4,09.0,0000.0,0008.43,0003.60,0002.21
2022-03-19 18:03:00,,0826.6,5.00,0.00,23.6,23.0,00.0,32.5,25.4,09.3,0000.0,0008.66,0003.62,0002.22
2022-03-19 18:04:00,,0826.6,5.00,0.00,23.7,23.0,00.0,32.5,25.5,09.7,0000.0,0008.62,0003.67,0002.26
2022-03-19 18:05:00,,0826.5,5.00,0.00,23.7,23.1,00.0,32.5,25.5,09.1,0000.0,0008.52,0003.66,0002.28
2022-03-19 18:06:00,,0826.5,5.00,0.00,23.7,23.1,00.0,32.5,25.5,09.0,0000.0,0008.48,0003.66,0002.30
2022-03-19 18:07:00,,0826.5,4.99,0.00,23.7,23.1,00.0,32.6,25.5,09.1,0000.0,0008.39,0003.67,0002.31
2022-03-19 18:08:00,,0826.5,5.00,0.00,23.7,23.1,00.0,32.6,25.5,09.2,0000.0,0008.42,0003.69,0002.34
2022-03-19 18:09:00,,0826.5,5.01,0.00,23.7,23.1,00.0,32.6,25.5,08.8,0000.0,0008.45,0003.71,0002.37
2022-03-19 18:10:00,,0826.5,5.01,0.00,23.7,23.1,00.0,32.6,25.5,09.3,0000.0,0008.53,0003.73,0002.36
2022-03-19 18:11:00,,0826.5,5.00,0.00,23.7,23.1,00.0,32.6,25.5,09.1,0000.0,0008.65,0003.75,0002.36
2022-03-19 18:12:00,,0826.5,5.00,0.00,23.8,23.1,00.0,32.6,25.5,09.5,0000.0,0008.78,0003.70,0002.37
2022-03-19 18:13:00,,0826.5,5.00,0.00,23.8,23.1,00.0,32.6,25.6,08.9,0000.0,0008.72,0003.70,0002.37
2022-03-19 18:14:00,,0826.4,5.00,0.00,23.8,23.1,00.0,32.6,25.6,08.9,0000.0,0008.47,0003.68,0002.39
2022-03-19 18:15:00,,0826.5,5.00,0.00,23.8,23.1,00.0,32.7,25.6,09.4,0000.0,0008.39,0003.66,0002.39
2022-03-19 18:16:00,,0826.5,5.00,0.00,23.8,23.2,00.0,32.7,25.6,09.2,0000.0,0008.51,0003.69,0002.39
2022-03-19 18:17:00,,0826.5,5.00,0.00,23.8,23.2,00.0,32.7,25.6,08.8,0000.0,0008.14,0003.65,0002.39
2022-03-19 18:18:00,,0826.5,5.00,0.00,23.8,23.2,00.0,32.7,25.7,09.1,0000.0,0008.25,0003.67,0002.39
2022-03-19 18:19:00,,0826.5,5.02,0.00,23.9,23.3,00.0,32.7,25.7,09.6,0000.0,0008.39,0003.66,0002.39
2022-03-19 18:20:00,,0826.5,5.00,0.00,23.9,23.3,00.0,32.7,25.7,09.2,0000.0,0008.36,0003.63,0002.38
2022-03-19 18:21:00,,0826.5,5.00,0.00,23.9,23.3,00.0,32.7,25.8,09.1,0000.0,0008.41,0003.64,0002.38
2022-03-19 18:22:00,,0826.5,5.00,0.00,24.0,23.4,00.0,32.8,25.9,09.2,0000.0,0008.36,0003.63,0002.39
2022-03-19 18:23:00,,0826.5,5.00,0.00,24.0,23.4,00.0,32.8,25.9,09.1,0000.0,0008.06,0003.62,0002.38
2022-03-19 18:24:00,,0826.5,5.00,0.00,24.0,23.4,00.0,32.8,25.9,09.5,0000.0,0007.96,0003.64,0002.39
2022-03-19 18:25:00,,0826.5,5.00,0.00,24.0,23.5,00.0,32.8,25.9,09.5,0000.0,0008.07,0003.64,0002.38
2022-03-19 18:26:00,,0826.5,5.00,0.00,24.1,23.5,00.0,32.9,26.0,09.4,0000.0,0008.20,0003.69,0002.39
2022-03-19 18:27:00,,0826.5,5.00,0.00,24.1,23.5,00.0,32.9,26.0,08.9,0000.0,0008.24,0003.75,0002.41
2022-03-19 18:28:00,,0826.5,4.99,0.00,24.1,23.5,00.0,32.9,26.0,08.7,0000.0,0008.33,0003.78,0002.40
2022-03-19 18:29:00,,0826.5,5.00,0.00,24.2,23.6,00.0,32.9,26.0,08.6,0000.0,0008.63,0003.80,0002.40
2022-03-19 18:30:00,,0826.5,5.00,0.00,24.2,23.6,00.0,32.9,26.1,09.0,0000.0,0008.98,0003.80,0002.39
2022-03-19 18:31:00,,0826.5,5.00,0.00,24.2,23.6,00.0,33.0,26.1,09.1,0000.0,0009.22,0003.81,0002.38
2022-03-19 18:32:00,,0826.5,5.00,0.00,24.3,23.6,00.0,33.0,26.1,08.8,0000.0,0009.35,0003.79,0002.38
2022-03-19 18:33:00,,0826.4,4.99,0.00,24.3,23.7,00.0,33.0,26.2,08.9,0000.0,0009.36,0003.81,0002.38
2022-03-19 18:34:00,,0826.4,5.02,0.00,24.3,23.7,00.0,33.1,26.2,08.9,0000.0,0009.36,0003.84,0002.39
2022-03-19 18:35:00,,0826.3,5.00,0.00,24.3,23.6,00.0,33.1,26.1,08.7,0000.0,0009.38,0003.85,0002.40
2022-03-19 18:36:00,,0826.4,4.99,0.00,24.3,23.6,00.0,33.1,26.1,08.5,0000.0,0009.57,0003.90,0002.41
2022-03-19 18:37:00,,0826.3,5.00,0.00,24.3,23.6,00.0,33.1,26.1,08.3,0000.0,0009.57,0003.86,0002.41
2022-03-19 18:38:00,,0826.3,5.01,0.00,24.3,23.6,00.0,33.1,26.1,08.4,0000.0,0009.50,0003.81,0002.41
2022-03-19 18:39:00,,0826.3,5.00,0.00,24.3,23.6,00.0,33.2,26.1,08.6,0000.0,0009.60,0003.85,0002.43
2022-03-19 18:40:00,,0826.3,5.00,0.00,24.3,23.6,00.0,33.2,26.2,08.6,0000.0,0009.34,0003.86,0002.45
2022-03-19 18:41:00,,0826.3,4.99,0.00,24.4,23.7,00.0,33.2,26.2,08.6,0000.0,0008.95,0003.89,0002.47
2022-03-19 18:42:00,,0826.2,5.00,0.00,24.4,23.7,00.0,33.2,26.3,08.4,0000.0,0009.08,0003.91,0002.49
2022-03-19 18:43:00,,0826.2,5.00,0.00,24.4,23.8,00.0,33.2,26.3,08.4,0000.0,0008.81,0003.92,0002.50
2022-03-19 18:44:00,,0826.2,5.00,0.00,24.4,23.8,00.0,33.2,26.3,08.3,0000.0,0008.92,0003.91,0002.52
2022-03-19 18:45:00,,0826.1,5.02,0.00,24.5,23.8,00.0,33.3,26.4,08.3,0000.0,0009.66,0003.96,0002.53
2022-03-19 18:46:00,,0826.1,5.00,0.00,24.5,23.9,00.0,33.3,26.4,08.7,0000.0,0009.84,0003.93,0002.52
2022-03-19 18:47:00,,0826.1,4.99,0.00,24.5,23.9,00.0,33.3,26.4,08.6,0000.0,0009.71,0003.91,0002.53
2022-03-19 18:48:00,,0826.1,4.99,0.00,24.6,24.0,00.0,33.3,26.5,08.8,0000.0,0009.60,0003.95,0002.54
2022-03-19 18:49:00,,0826.0,4.99,0.00,24.6,24.0,00.0,33.4,26.5,09.1,0000.0,0009.61,0003.95,0002.52
2022-03-19 18:50:00,,0826.0,5.00,0.00,24.6,24.0,00.0,33.4,26.6,09.2,0000.0,0010.33,0003.92,0002.51
2022-03-19 18:51:00,,0826.1,5.00,0.00,24.7,24.0,00.0,33.4,26.6,08.8,0000.0,0010.38,0003.90,0002.49
2022-03-19 18:52:00,,0826.0,5.00,0.00,24.7,24.0,00.0,33.4,26.6,08.5,0000.0,0010.17,0003.86,0002.49
2022-03-19 18:53:00,,0826.1,5.01,0.00,24.7,24.0,00.0,33.5,26.6,08.5,0000.0,0009.79,0003.86,0002.48
2022-03-19 18:54:00,,0826.1,5.00,0.00,24.7,24.0,00.0,33.5,26.6,08.3,0000.0,0009.89,0003.91,0002.51
2022-03-19 18:55:00,,0826.1,5.00,0.00,24.7,24.0,00.0,33.5,26.6,08.4,0000.0,0009.80,0003.93,0002.51
2022-03-19 18:56:00,,0826.1,4.99,0.00,24.7,24.0,00.0,33.5,26.6,08.4,0000.0,0009.23,0003.90,0002.51
2022-03-19 18:57:00,,0826.0,4.99,0.00,24.7,24.0,00.0,33.5,26.6,08.2,0000.0,0009.09,0003.94,0002.54
2022-03-19 18:58:00,,0826.1,5.00,0.00,24.7,24.0,00.0,33.5,26.6,08.6,0000.0,0009.19,0003.96,0002.55
2022-03-19 18:59:00,,0826.0,5.00,0.00,24.7,24.1,00.0,33.6,26.6,08.6,0000.0,0009.33,0003.96,0002.55
